Location: ????????
(55.5667°N, 37.5833°E)
Time: 09:38:55
(UTC+00:00)

Ariane Rocket - Pass Details

Date: 14 April 2026
Orbit: 755 x 763 km, 98.4° (Epoch: 19 May)

Event Time Altitude Azimuth Distance (km) Brightness Sun altitude
Exits shadow 17:49:36 14° 122° (ESE) 2,025 4.5 -10.5°
Maximum altitude 17:53:26 37° 61° (ENE) 1,180 3.8 -10.9°
Drops below altitude 10° 17:58:02 10° 356° (N) 2,299 6.1 -11.4°
Sets 18:00:29 0° 348° (NNW) 3,229 7.1 -11.7°
